Change the Weather History Date:

Wednesday, March 27, 2013

  Actual Average (KLJF) Record (KLJF)
Temperature  
Mean Temperature 20 °F -  
Max Temperature 35 °F 46 °F 65 °F (1968)
Min Temperature 6 °F 26 °F 2 °F (1964)
Degree Days  
Heating Degree Days 44    
Moisture  
Dew Point 14 °F    
Average Humidity 73    
Maximum Humidity 93    
Minimum Humidity 50    
Precipitation  
Precipitation 0.00 in - - ()
Sea Level Pressure  
Sea Level Pressure 30.31 in    
Wind  
Wind Speed 1 mph (SE)    
Max Wind Speed 8 mph    
Max Gust Speed -    
Visibility 10 miles    
Events      
Averages and records for this station are not official NWS values.
T = Trace of Precipitation, MM = Missing Value Source: NWS Daily Summary

Daily Weather History Graph

Daily Weather History Graph

Search for Another Location

Airport or City:

Trip Planner

Search our weather history database for the weather conditions in past years. The results will help you decide how hot, cold, wet, or windy it might be!

Date:

Astronomy

Mar. 27, 2013 Rise Set
Actual Time 7:08 AM CDT 7:40 PM CDT
Civil Twilight 6:38 AM CDT 8:10 PM CDT
Nautical Twilight 6:03 AM CDT 8:45 PM CDT
Astronomical Twilight 5:27 AM CDT 9:22 PM CDT
Moon 8:29 PM CDT 6:57 AM CDT
Length of Visible Light 13h 32m
Length of Day
12h 32m
Full, 100% of the Moon is Illuminated
Mar 27
Full
Apr 2
Last Quarter
Apr 10
New
Apr 18
First Quarter
Apr 25
Full

Hourly Weather History & Observations

Time (CDT) Temp. Windchill Dew Point Humidity Pressure Visibility Wind Dir Wind Speed Gust Speed Precip Events Conditions
12:13 AM 14.2 °F - 12.4 °F 93% 30.29 in 10.0 mi Calm Calm - N/A   Clear
12:33 AM 14.2 °F - 12.4 °F 93% 30.29 in 10.0 mi Calm Calm - N/A   Clear
12:53 AM 13.5 °F - 11.7 °F 93% 30.29 in 10.0 mi Calm Calm - N/A   Clear
1:13 AM 12.6 °F - 10.8 °F 92% 30.30 in 10.0 mi Calm Calm - N/A   Clear
1:33 AM 11.8 °F - 9.5 °F 90% 30.30 in 10.0 mi Calm Calm - N/A   Clear
1:53 AM 12.2 °F - 10.2 °F 92% 30.30 in 7.0 mi Calm Calm - N/A   Clear
2:13 AM 11.7 °F - 9.5 °F 91% 30.30 in 10.0 mi Calm Calm - N/A   Clear
2:33 AM 10.8 °F - 8.4 °F 90% 30.30 in 7.0 mi Calm Calm - N/A   Clear
2:53 AM 10.9 °F - 8.6 °F 90% 30.30 in 5.0 mi Calm Calm - N/A   Clear
3:13 AM 9.7 °F - 7.5 °F 91% 30.30 in 7.0 mi Calm Calm - N/A   Clear
3:33 AM 8.2 °F - 5.9 °F 90% 30.30 in 10.0 mi Calm Calm - N/A   Clear
3:53 AM 10.0 °F - 7.9 °F 91% 30.30 in 10.0 mi Calm Calm - N/A   Clear
4:13 AM 7.9 °F - 5.2 °F 89% 30.30 in 10.0 mi Calm Calm - N/A   Clear
4:33 AM 7.7 °F - 5.4 °F 90% 30.30 in 7.0 mi Calm Calm - N/A   Clear
4:53 AM 6.8 °F - 4.1 °F 89% 30.30 in 7.0 mi Calm Calm - N/A   Clear
5:13 AM 7.2 °F - 4.5 °F 89% 30.30 in 7.0 mi Calm Calm - N/A   Clear
5:33 AM 6.8 °F - 4.3 °F 89% 30.29 in 4.0 mi Calm Calm - N/A   Clear
5:53 AM 7.9 °F - 5.4 °F 89% 30.29 in 4.0 mi Calm Calm - N/A   Clear
6:13 AM 6.4 °F - 3.6 °F 88% 30.30 in 10.0 mi Calm Calm - N/A   Clear
6:33 AM 6.6 °F - 4.1 °F 89% 30.30 in 10.0 mi Calm Calm - N/A   Clear
6:53 AM 6.8 °F - 4.1 °F 89% 30.30 in 10.0 mi Calm Calm - N/A   Clear
7:13 AM 7.0 °F - 4.5 °F 89% 30.30 in 10.0 mi Calm Calm - N/A   Clear
7:33 AM 6.8 °F - 3.9 °F 88% 30.30 in 10.0 mi Calm Calm - N/A   Clear
7:53 AM 6.6 °F - 3.7 °F 88% 30.31 in 10.0 mi Calm Calm - N/A   Clear
8:13 AM 6.8 °F - 4.1 °F 89% 30.31 in 10.0 mi Calm Calm - N/A   Clear
8:33 AM 8.2 °F - 5.7 °F 89% 30.32 in 10.0 mi Calm Calm - N/A   Clear
8:53 AM 10.9 °F - 8.6 °F 90% 30.32 in 10.0 mi Calm Calm - N/A   Clear
9:13 AM 13.3 °F - 11.3 °F 92% 30.32 in 7.0 mi Calm Calm - N/A   Clear
9:33 AM 16.5 °F - 14.7 °F 93% 30.32 in 10.0 mi Calm Calm - N/A   Clear
9:53 AM 18.3 °F - 16.5 °F 93% 30.32 in 10.0 mi Calm Calm - N/A   Clear
10:13 AM 23.0 °F - 17.6 °F 80% 30.33 in 10.0 mi Calm Calm - N/A   Clear
10:32 AM 26.6 °F - 16.2 °F 65% 30.33 in 10.0 mi Calm Calm - N/A   Clear
10:53 AM 31.6 °F 28.3 °F 14.9 °F 50% 30.33 in 10.0 mi SE 3.5 mph - N/A   Clear
11:13 AM 32.0 °F 27.5 °F 15.8 °F 51% 30.33 in 10.0 mi SE 4.6 mph - N/A   Clear
11:33 AM 32.5 °F 27.1 °F 18.1 °F 55% 30.33 in 10.0 mi ESE 5.8 mph - N/A   Clear
11:53 AM 33.3 °F 27.9 °F 18.1 °F 54% 30.33 in 10.0 mi SSE 5.8 mph - N/A   Clear
12:13 PM 34.2 °F 28.2 °F 18.7 °F 53% 30.33 in 10.0 mi SE 6.9 mph - N/A   Clear
12:32 PM 34.0 °F 28.8 °F 18.9 °F 54% 30.33 in 10.0 mi South 5.8 mph - N/A   Clear
12:53 PM 34.5 °F 28.6 °F 18.9 °F 53% 30.33 in 10.0 mi ESE 6.9 mph - N/A   Clear
1:13 PM 35.1 °F 30.1 °F 19.2 °F 53% 30.33 in 10.0 mi SE 5.8 mph - N/A   Mostly Cloudy
1:33 PM 35.6 °F 29.9 °F 19.4 °F 52% 30.33 in 10.0 mi ESE 6.9 mph - N/A   Mostly Cloudy
1:52 PM 35.6 °F 29.2 °F 18.9 °F 51% 30.33 in 10.0 mi SE 8.1 mph - N/A   Scattered Clouds
2:13 PM 34.7 °F 29.6 °F 18.9 °F 52% 30.32 in 10.0 mi South 5.8 mph - N/A   Scattered Clouds
2:33 PM 35.1 °F 32.2 °F 19.8 °F 54% 30.32 in 10.0 mi SSE 3.5 mph - N/A   Mostly Cloudy
2:53 PM 35.2 °F 31.2 °F 19.4 °F 53% 30.32 in 10.0 mi SE 4.6 mph - N/A   Overcast
3:13 PM 35.2 °F 32.4 °F 19.4 °F 53% 30.31 in 10.0 mi SSE 3.5 mph - N/A   Mostly Cloudy
3:33 PM 35.6 °F 30.7 °F 19.6 °F 52% 30.30 in 10.0 mi SE 5.8 mph - N/A   Scattered Clouds
3:52 PM 35.6 °F 30.7 °F 19.6 °F 52% 30.30 in 10.0 mi South 5.8 mph - N/A   Clear
4:13 PM 35.4 °F 31.5 °F 19.2 °F 52% 30.30 in 10.0 mi SE 4.6 mph - N/A   Clear
4:33 PM 35.2 °F 31.2 °F 20.7 °F 55% 30.30 in 10.0 mi SSE 4.6 mph - N/A   Clear
4:53 PM 35.4 °F 31.5 °F 19.9 °F 53% 30.30 in 10.0 mi ESE 4.6 mph - N/A   Mostly Cloudy
5:13 PM 35.2 °F 31.2 °F 19.6 °F 53% 30.30 in 10.0 mi SSE 4.6 mph - N/A   Overcast
5:33 PM 35.1 °F 31.0 °F 19.2 °F 53% 30.30 in 10.0 mi SSE 4.6 mph - N/A   Scattered Clouds
5:53 PM 35.1 °F 32.2 °F 19.8 °F 54% 30.30 in 10.0 mi SE 3.5 mph - N/A   Clear
6:13 PM 35.4 °F 32.6 °F 19.4 °F 52% 30.29 in 10.0 mi SSE 3.5 mph - N/A   Clear
6:33 PM 34.7 °F 30.6 °F 19.8 °F 54% 30.30 in 10.0 mi SSE 4.6 mph - N/A   Clear
6:53 PM 34.7 °F 30.6 °F 19.0 °F 53% 30.29 in 10.0 mi SE 4.6 mph - N/A   Clear
7:13 PM 34.3 °F 30.2 °F 17.8 °F 51% 30.29 in 10.0 mi SE 4.6 mph - N/A   Clear
7:33 PM 33.3 °F 30.2 °F 18.1 °F 54% 30.29 in 10.0 mi SE 3.5 mph - N/A   Clear
7:53 PM 32.5 °F - 17.8 °F 55% 30.30 in 10.0 mi Calm Calm - N/A   Clear
8:13 PM 31.1 °F - 18.1 °F 59% 30.30 in 10.0 mi Calm Calm - N/A   Clear
8:33 PM 28.8 °F - 18.5 °F 66% 30.30 in 10.0 mi Calm Calm - N/A   Clear
8:53 PM 29.3 °F - 18.5 °F 64% 30.30 in 10.0 mi Calm Calm - N/A   Clear
9:13 PM 29.1 °F - 18.1 °F 64% 30.30 in 10.0 mi Calm Calm - N/A   Clear
9:33 PM 27.0 °F - 18.5 °F 70% 30.31 in 10.0 mi Calm Calm - N/A   Clear
9:53 PM 24.8 °F - 18.5 °F 77% 30.31 in 10.0 mi Calm Calm - N/A   Clear
10:13 PM 24.6 °F - 19.0 °F 79% 30.32 in 10.0 mi Calm Calm - N/A   Clear
10:33 PM 24.1 °F - 18.3 °F 79% 30.32 in 10.0 mi Calm Calm - N/A   Clear
10:53 PM 22.3 °F - 17.6 °F 82% 30.32 in 10.0 mi Calm Calm - N/A   Clear
11:13 PM 22.1 °F - 17.6 °F 83% 30.32 in 10.0 mi Calm Calm - N/A   Clear
11:33 PM 21.6 °F - 17.1 °F 83% 30.31 in 10.0 mi Calm Calm - N/A   Clear
11:53 PM 19.2 °F - 15.8 °F 87% 30.32 in 10.0 mi Calm Calm - N/A   Clear